Torna al catalogo

LEMUR-2 KATIE

AttivoScienzaSSO
NORAD 67387·PAYLOAD·🇺🇸 United States

Lanciato Jan 11, 2026 da Vandenberg Space Force Base

Loading…

Prossimi Passaggi (prossime 24 ore)

TLE

AggiornatoSource: Space-Track

Epoca: Sep 14, 2026, 10:47 UTC

1 67387U 26004AA  26257.44994272  .00003202  00000-0  33227-3 0  9993
2 67387  97.8093 255.4136 0003850 133.5304 226.6234 14.90666114 36608

Traccia LEMUR-2 KATIE in tempo reale con AllMySat

Download on the App Store